KLM416 OBBI-LBSF

Flight info

Callsign KLM416
Flight time N/A
Altitude 38000
Route ELOSO A453 EGMOR L768 AAR V45 TRF R652 OBROD/N0465F400 Q163 GENEX L53 SUVAS N128 OTHON UN128 VAXOS DCT USINI DCT MES UG18 GIKAS UN133 ATFIR DCT VANET
Aircraft B738/M-SDE2E3FGHIRWXY/LB1

Departure

Time 2026-05-04 13:31
Airport Bahrain International Airport (OBBI)

Arrival

Time N/A
Airport Sofia Airport (LBSF)
Time Latitude Longitude Altitude Speed Heading
2026-05-04 13:05 26.26617 50.63373 20 ft 0 kts 212°
2026-05-04 13:08 26.26627 50.63380 20 ft 0 kts 212°
2026-05-04 13:08 26.26629 50.63382 20 ft 0 kts 213°
2026-05-04 13:20 26.26649 50.63396 23 ft 4 kts 213°
2026-05-04 13:20 26.26672 50.63413 24 ft 4 kts 213°
2026-05-04 13:21 26.26692 50.63427 20 ft 4 kts 207°
2026-05-04 13:21 26.26714 50.63432 21 ft 4 kts 147°
2026-05-04 13:21 26.26730 50.63413 20 ft 2 kts 122°
2026-05-04 13:21 26.26733 50.63408 20 ft 0 kts 122°
2026-05-04 13:25 26.26727 50.63418 20 ft 4 kts 122°
2026-05-04 13:26 26.26705 50.63458 21 ft 7 kts 122°
2026-05-04 13:26 26.26674 50.63509 21 ft 8 kts 123°
2026-05-04 13:26 26.26639 50.63570 21 ft 10 kts 123°
2026-05-04 13:26 26.26595 50.63646 20 ft 13 kts 122°
2026-05-04 13:27 26.26576 50.63740 20 ft 13 kts 52°
2026-05-04 13:27 26.26610 50.63825 20 ft 13 kts 111°
2026-05-04 13:27 26.26544 50.63941 22 ft 22 kts 122°
2026-05-04 13:27 26.26451 50.64103 21 ft 27 kts 122°
2026-05-04 13:28 26.26342 50.64293 19 ft 31 kts 123°
2026-05-04 13:28 26.26217 50.64507 19 ft 34 kts 122°
2026-05-04 13:28 26.26090 50.64729 19 ft 32 kts 122°
2026-05-04 13:28 26.26018 50.64892 20 ft 17 kts 86°
2026-05-04 13:29 26.26024 50.64920 21 ft 0 kts 70°
2026-05-04 13:29 26.26029 50.64932 20 ft 7 kts 64°
2026-05-04 13:30 26.26105 50.65000 18 ft 19 kts 12°
2026-05-04 13:30 26.26150 50.64976 17 ft 4 kts 309°
2026-05-04 13:30 26.26166 50.64954 17 ft 4 kts 305°
2026-05-04 13:30 26.26301 50.64726 15 ft 77 kts 304°
2026-05-04 13:31 26.26739 50.63968 17 ft 152 kts 302°
2026-05-04 13:31 26.27314 50.62810 420 ft 186 kts 295°
2026-05-04 13:31 26.27857 50.61493 1463 ft 182 kts 297°
2026-05-04 13:31 26.28577 50.60383 2385 ft 181 kts 332°
2026-05-04 13:32 26.29851 50.59900 2746 ft 209 kts 348°
2026-05-04 13:32 26.31380 50.59486 2977 ft 243 kts 348°
2026-05-04 13:32 26.33080 50.59056 3571 ft 255 kts 348°
2026-05-04 13:32 26.34829 50.58678 3898 ft 257 kts 357°
2026-05-04 13:33 26.36611 50.58845 3985 ft 259 kts
2026-05-04 13:33 26.38358 50.58449 4029 ft 257 kts 341°
2026-05-04 13:33 26.40058 50.57785 4452 ft 262 kts 342°
2026-05-04 13:33 26.41780 50.57160 5455 ft 259 kts 342°
2026-05-04 13:34 26.43505 50.56572 6442 ft 259 kts 342°
2026-05-04 13:34 26.45248 50.56004 7275 ft 264 kts 342°
2026-05-04 13:34 26.47030 50.55443 8113 ft 268 kts 342°
2026-05-04 13:34 26.48842 50.54885 8973 ft 272 kts 342°
2026-05-04 13:35 26.50681 50.54328 9832 ft 276 kts 341°
2026-05-04 13:35 26.54656 50.53132 10489 ft 321 kts 342°
2026-05-04 13:35 26.56899 50.52464 10655 ft 345 kts 342°
2026-05-04 13:36 26.59287 50.51756 10822 ft 365 kts 342°
2026-05-04 13:36 26.61782 50.51020 11221 ft 375 kts 342°
2026-05-04 13:36 26.64323 50.50270 11794 ft 380 kts 342°
2026-05-04 13:36 26.66875 50.49455 12396 ft 381 kts 336°
2026-05-04 13:37 26.69114 50.47909 12959 ft 380 kts 315°
2026-05-04 13:37 26.70795 50.45646 13593 ft 380 kts 300°
2026-05-04 13:37 26.71853 50.42941 14104 ft 382 kts 287°
2026-05-04 13:37 26.72344 50.41051 14469 ft 383 kts 284°
2026-05-04 13:38 26.73288 50.37187 15166 ft 388 kts 284°
2026-05-04 13:38 26.74011 50.34258 15652 ft 392 kts 285°
2026-05-04 13:38 26.74762 50.31305 16145 ft 396 kts 285°
2026-05-04 13:38 26.75530 50.28330 16634 ft 399 kts 285°
2026-05-04 13:39 26.76330 50.25342 17108 ft 403 kts 286°
2026-05-04 13:39 26.77213 50.22351 17576 ft 407 kts 287°
2026-05-04 13:39 26.78132 50.19338 18032 ft 410 kts 287°
2026-05-04 13:39 26.79057 50.16306 18439 ft 413 kts 287°
2026-05-04 13:40 26.79979 50.13256 18872 ft 415 kts 287°
2026-05-04 13:40 26.80898 50.10187 19299 ft 417 kts 287°
2026-05-04 13:40 26.81817 50.07095 19714 ft 419 kts 287°
2026-05-04 13:40 26.82737 50.03994 20113 ft 421 kts 287°
2026-05-04 13:41 26.83661 50.00873 20525 ft 423 kts 287°
2026-05-04 13:41 26.84590 49.97737 20931 ft 425 kts 287°
2026-05-04 13:41 26.85523 49.94584 21322 ft 427 kts 287°
2026-05-04 13:42 26.87390 49.88273 22051 ft 432 kts 286°
2026-05-04 13:42 26.88336 49.85068 22412 ft 434 kts 286°
2026-05-04 13:42 26.89093 49.82503 22681 ft 436 kts 286°
2026-05-04 13:42 26.90014 49.79377 23016 ft 438 kts 286°
2026-05-04 13:43 26.90970 49.76131 23345 ft 440 kts 286°
2026-05-04 13:43 26.91931 49.72866 23633 ft 442 kts 286°
2026-05-04 13:43 26.92893 49.69593 23938 ft 442 kts 286°
2026-05-04 13:43 26.93855 49.66317 24251 ft 443 kts 286°
2026-05-04 13:44 26.94802 49.63092 24562 ft 443 kts 286°
2026-05-04 13:44 26.95743 49.59880 24847 ft 443 kts 286°
2026-05-04 13:44 26.96706 49.56593 25124 ft 444 kts 286°
2026-05-04 13:44 26.97670 49.53297 25380 ft 446 kts 286°
2026-05-04 13:45 26.98636 49.49989 25642 ft 446 kts 285°
2026-05-04 13:45 26.99605 49.46674 25906 ft 447 kts 285°
2026-05-04 13:45 27.00573 49.43357 26151 ft 448 kts 286°
2026-05-04 13:45 27.01698 49.40092 26383 ft 452 kts 292°
2026-05-04 13:46 27.03218 49.36992 26596 ft 455 kts 296°
2026-05-04 13:46 27.04802 49.33918 26815 ft 456 kts 296°
2026-05-04 13:46 27.06385 49.30836 27020 ft 456 kts 296°
2026-05-04 13:46 27.07959 49.27744 27247 ft 456 kts 296°
2026-05-04 13:47 27.09521 49.24652 27515 ft 455 kts 296°
2026-05-04 13:47 27.11071 49.21568 27815 ft 453 kts 295°
2026-05-04 13:47 27.12614 49.18489 28147 ft 451 kts 295°
2026-05-04 13:47 27.14148 49.15422 28484 ft 449 kts 295°
2026-05-04 13:48 27.15677 49.12365 28798 ft 448 kts 295°
2026-05-04 13:48 27.17202 49.09313 29126 ft 446 kts 295°
2026-05-04 13:48 27.18719 49.06277 29476 ft 445 kts 295°
2026-05-04 13:48 27.20230 49.03252 29869 ft 442 kts 295°
2026-05-04 13:49 27.21731 49.00245 30195 ft 440 kts 295°
2026-05-04 13:49 27.23230 48.97245 30454 ft 440 kts 295°
2026-05-04 13:49 27.24729 48.94246 30703 ft 440 kts 295°
2026-05-04 13:49 27.26231 48.91245 30983 ft 439 kts 294°
2026-05-04 13:50 27.27728 48.88250 31298 ft 438 kts 294°
2026-05-04 13:50 27.29217 48.85269 31609 ft 437 kts 294°
2026-05-04 13:50 27.30703 48.82291 31881 ft 437 kts 294°
2026-05-04 13:50 27.32168 48.79353 32180 ft 436 kts 294°
2026-05-04 13:51 27.33646 48.76386 32534 ft 434 kts 294°
2026-05-04 13:51 27.35119 48.73429 32899 ft 432 kts 294°
2026-05-04 13:51 27.36585 48.70482 33203 ft 432 kts 293°
2026-05-04 13:51 27.38049 48.67535 33480 ft 432 kts 293°
2026-05-04 13:52 27.40973 48.61645 34032 ft 430 kts 293°
2026-05-04 13:52 27.42431 48.58707 34296 ft 429 kts 293°
2026-05-04 13:52 27.43882 48.55779 34576 ft 428 kts 293°
2026-05-04 13:53 27.45333 48.52852 34861 ft 427 kts 292°
2026-05-04 13:53 27.46775 48.49940 35215 ft 424 kts 292°
2026-05-04 13:53 27.48207 48.47046 35535 ft 422 kts 292°
2026-05-04 13:54 27.51062 48.41265 35912 ft 424 kts 292°
2026-05-04 13:54 27.52500 48.38347 36028 ft 427 kts 292°
2026-05-04 13:54 27.55376 48.32519 36586 ft 423 kts 292°
2026-05-04 13:55 27.56803 48.29624 36858 ft 422 kts 292°
2026-05-04 13:55 27.59645 48.23844 37418 ft 419 kts 291°
2026-05-04 13:55 27.61054 48.20971 37654 ft 419 kts 291°
2026-05-04 13:56 27.63405 48.16164 37785 ft 423 kts 291°
2026-05-04 13:57 27.67681 48.07424 37787 ft 423 kts 291°
2026-05-04 13:58 27.73341 47.95833 37799 ft 420 kts 290°
2026-05-04 13:58 27.77562 47.87172 37797 ft 419 kts 290°
2026-05-04 13:59 27.80362 47.81414 37794 ft 418 kts 290°
2026-05-04 14:00 27.84488 47.72742 37799 ft 413 kts 285°
2026-05-04 14:00 27.87313 47.63669 37802 ft 407 kts 281°
2026-05-04 14:01 27.89165 47.57617 37806 ft 407 kts 281°
2026-05-04 14:02 27.91960 47.48546 37799 ft 407 kts 282°
2026-05-04 14:02 27.93822 47.42504 37831 ft 407 kts 281°
2026-05-04 14:03 27.95679 47.36466 37813 ft 406 kts 281°
2026-05-04 14:03 27.97532 47.30429 37804 ft 406 kts 281°
2026-05-04 14:04 28.00302 47.21383 37813 ft 406 kts 281°
2026-05-04 14:04 28.02146 47.15350 37820 ft 405 kts 281°
2026-05-04 14:05 28.04905 47.06297 37824 ft 405 kts 281°
2026-05-04 14:06 28.06740 47.00266 37808 ft 405 kts 281°
2026-05-04 14:06 28.08569 46.94244 37815 ft 404 kts 281°
2026-05-04 14:07 28.10397 46.88214 37813 ft 404 kts 281°
2026-05-04 14:07 28.12332 46.82254 37819 ft 406 kts 283°
2026-05-04 14:08 28.14357 46.76271 37820 ft 406 kts 282°
2026-05-04 14:08 28.16367 46.70294 37824 ft 406 kts 282°
2026-05-04 14:09 28.19356 46.61316 37818 ft 405 kts 282°
2026-05-04 14:10 28.22330 46.52338 37828 ft 405 kts 282°
2026-05-04 14:10 28.24308 46.46355 37822 ft 405 kts 282°
2026-05-04 14:11 28.26284 46.40371 37819 ft 405 kts 282°
2026-05-04 14:11 28.29241 46.31392 37812 ft 405 kts 282°
2026-05-04 14:12 28.31211 46.25398 37809 ft 405 kts 282°
2026-05-04 14:13 28.34161 46.16406 37809 ft 405 kts 282°
2026-05-04 14:13 28.36131 46.10417 37802 ft 406 kts 283°
2026-05-04 14:14 28.38312 46.04483 37805 ft 407 kts 284°
2026-05-04 14:14 28.41664 45.95649 37819 ft 407 kts 284°
2026-05-04 14:15 28.46083 45.83801 37835 ft 407 kts 284°
2026-05-04 14:16 28.49375 45.74908 37833 ft 407 kts 283°
2026-05-04 14:17 28.52666 45.65993 37850 ft 408 kts 283°
2026-05-04 14:18 28.55967 45.57032 37840 ft 409 kts 283°
2026-05-04 14:19 28.60354 45.45091 37842 ft 410 kts 283°
2026-05-04 14:19 28.62555 45.39086 37837 ft 411 kts 283°
2026-05-04 14:20 28.64753 45.33081 37845 ft 411 kts 283°
2026-05-04 14:20 28.66946 45.27080 37838 ft 410 kts 283°
2026-05-04 14:21 28.70155 45.18277 37833 ft 410 kts 283°
2026-05-04 14:21 28.72225 45.12588 37839 ft 410 kts 283°
2026-05-04 14:22 28.74406 45.06583 37847 ft 410 kts 283°
2026-05-04 14:22 28.76581 45.00587 37836 ft 409 kts 283°
2026-05-04 14:23 28.79824 44.91629 37839 ft 409 kts 283°
2026-05-04 14:24 28.81987 44.85640 37837 ft 408 kts 283°
2026-05-04 14:24 28.84145 44.79656 37835 ft 408 kts 283°
2026-05-04 14:25 28.86481 44.73730 37827 ft 416 kts 290°
2026-05-04 14:25 28.91530 44.65487 37840 ft 423 kts 295°
2026-05-04 14:26 28.94946 44.60003 37856 ft 423 kts 295°
2026-05-04 14:26 28.98335 44.54521 37838 ft 422 kts 295°
2026-05-04 14:27 29.01707 44.49044 37836 ft 421 kts 295°
2026-05-04 14:27 29.05068 44.43573 37838 ft 420 kts 295°
2026-05-04 14:28 29.08423 44.38106 37847 ft 419 kts 295°
2026-05-04 14:28 29.11766 44.32651 37838 ft 418 kts 295°
2026-05-04 14:29 29.18415 44.21781 37861 ft 416 kts 295°
2026-05-04 14:30 29.21727 44.16356 37852 ft 415 kts 295°
2026-05-04 14:31 29.26669 44.08246 37856 ft 414 kts 295°
2026-05-04 14:32 29.33238 43.97444 37855 ft 412 kts 294°
2026-05-04 14:32 29.36508 43.92056 37843 ft 411 kts 294°
2026-05-04 14:33 29.39772 43.86669 37850 ft 411 kts 294°
2026-05-04 14:33 29.43009 43.81322 37863 ft 410 kts 294°
2026-05-04 14:34 29.46268 43.75930 37846 ft 410 kts 294°
2026-05-04 14:34 29.49515 43.70551 37852 ft 410 kts 294°
2026-05-04 14:35 29.52762 43.65165 37853 ft 410 kts 294°
2026-05-04 14:35 29.56004 43.59779 37863 ft 410 kts 294°
2026-05-04 14:36 29.59245 43.54391 37859 ft 410 kts 294°
2026-05-04 14:36 29.61962 43.49867 37858 ft 410 kts 294°
2026-05-04 14:37 29.65093 43.44413 37859 ft 408 kts 292°
2026-05-04 14:37 29.68155 43.38913 37854 ft 408 kts 292°
2026-05-04 14:38 29.71216 43.33418 37864 ft 408 kts 292°
2026-05-04 14:38 29.74288 43.27919 37859 ft 409 kts 292°
2026-05-04 14:39 29.77343 43.22455 37874 ft 409 kts 292°
2026-05-04 14:39 29.80423 43.16942 37858 ft 409 kts 292°
2026-05-04 14:40 29.85041 43.08664 37848 ft 410 kts 292°
2026-05-04 14:40 29.88119 43.03136 37853 ft 409 kts 292°
2026-05-04 14:41 29.91196 42.97601 37855 ft 410 kts 292°
2026-05-04 14:42 29.97358 42.86495 37851 ft 412 kts 292°
2026-05-04 14:42 30.00443 42.80925 37850 ft 412 kts 292°
2026-05-04 14:43 30.03523 42.75357 37858 ft 411 kts 292°
2026-05-04 14:43 30.06598 42.69789 37860 ft 411 kts 292°
2026-05-04 14:44 30.09669 42.64221 37860 ft 411 kts 292°
2026-05-04 14:44 30.12739 42.58645 37867 ft 412 kts 292°
2026-05-04 14:45 30.15730 42.53204 37860 ft 412 kts 292°
2026-05-04 14:45 30.18804 42.47608 37869 ft 412 kts 292°
2026-05-04 14:46 30.21853 42.42049 37869 ft 412 kts 292°
2026-05-04 14:46 30.24875 42.36530 37875 ft 413 kts 292°
2026-05-04 14:47 30.27949 42.30909 37873 ft 413 kts 292°
2026-05-04 14:47 30.31019 42.25288 37876 ft 413 kts 291°
2026-05-04 14:48 30.34091 42.19655 37903 ft 413 kts 291°
2026-05-04 14:48 30.37162 42.14016 37889 ft 414 kts 291°
2026-05-04 14:49 30.40229 42.08378 37881 ft 414 kts 291°
2026-05-04 14:49 30.43029 42.03222 37880 ft 414 kts 291°
2026-05-04 14:50 30.46098 41.97564 37899 ft 414 kts 291°
2026-05-04 14:50 30.49142 41.91943 37878 ft 414 kts 291°
2026-05-04 14:51 30.52202 41.86284 37879 ft 413 kts 291°
2026-05-04 14:51 30.55255 41.80632 37882 ft 413 kts 291°
2026-05-04 14:52 30.58302 41.74980 37902 ft 413 kts 291°
2026-05-04 14:52 30.61352 41.69317 37899 ft 413 kts 291°
2026-05-04 14:53 30.64394 41.63660 37892 ft 413 kts 291°
2026-05-04 14:53 30.67430 41.58005 37894 ft 412 kts 291°
2026-05-04 14:54 30.70442 41.52388 37894 ft 412 kts 291°
2026-05-04 14:54 30.73470 41.46734 37892 ft 411 kts 291°
2026-05-04 14:55 30.76491 41.41081 37893 ft 411 kts 291°
2026-05-04 14:55 30.79504 41.35438 37892 ft 410 kts 291°
2026-05-04 14:56 30.82506 41.29805 37898 ft 409 kts 291°
2026-05-04 14:56 30.85498 41.24185 37905 ft 408 kts 291°
2026-05-04 14:57 30.88484 41.18566 37909 ft 407 kts 291°
2026-05-04 14:57 30.91296 41.12893 37949 ft 396 kts 283°
2026-05-04 14:58 30.93291 41.06956 37922 ft 393 kts 282°
2026-05-04 14:58 30.95269 41.01021 37887 ft 393 kts 282°
2026-05-04 14:59 30.97258 40.95087 37894 ft 393 kts 282°
2026-05-04 15:00 31.00234 40.86225 37900 ft 393 kts 282°
2026-05-04 15:00 31.02222 40.80300 37899 ft 392 kts 282°
2026-05-04 15:01 31.05192 40.71430 37898 ft 391 kts 282°
2026-05-04 15:01 31.07168 40.65512 37900 ft 391 kts 282°
2026-05-04 15:02 31.09138 40.59601 37910 ft 391 kts 282°
2026-05-04 15:02 31.11105 40.53690 37912 ft 391 kts 282°
2026-05-04 15:03 31.13070 40.47776 37912 ft 391 kts 282°
2026-05-04 15:03 31.15032 40.41860 37926 ft 391 kts 282°
2026-05-04 15:04 31.16992 40.35938 37920 ft 390 kts 282°
2026-05-04 15:04 31.18948 40.30018 37923 ft 390 kts 282°
2026-05-04 15:05 31.20901 40.24097 37957 ft 390 kts 282°
2026-05-04 15:05 31.22849 40.18179 37943 ft 390 kts 282°
2026-05-04 15:06 31.24795 40.12258 37932 ft 390 kts 282°
2026-05-04 15:07 31.27709 40.03372 37937 ft 390 kts 282°
2026-05-04 15:07 31.29648 39.97442 37951 ft 391 kts 282°
2026-05-04 15:08 31.31590 39.91496 37948 ft 392 kts 282°
2026-05-04 15:08 31.33530 39.85542 37947 ft 392 kts 282°
2026-05-04 15:09 31.35469 39.79583 37975 ft 392 kts 282°
2026-05-04 15:09 31.37397 39.73645 37959 ft 393 kts 282°
2026-05-04 15:10 31.40322 39.64620 37958 ft 393 kts 282°
2026-05-04 15:11 31.43215 39.55668 37970 ft 394 kts 282°
2026-05-04 15:11 31.45103 39.49849 37969 ft 394 kts 282°
2026-05-04 15:12 31.47054 39.43850 37960 ft 394 kts 282°
2026-05-04 15:12 31.49002 39.37844 37962 ft 395 kts 282°
2026-05-04 15:13 31.50949 39.31827 37965 ft 395 kts 282°
2026-05-04 15:13 31.52894 39.25807 37963 ft 395 kts 282°
2026-05-04 15:14 31.54832 39.19794 37968 ft 395 kts 282°
2026-05-04 15:14 31.56456 39.14746 37964 ft 395 kts 282°
2026-05-04 15:15 31.58392 39.08720 37969 ft 395 kts 282°
2026-05-04 15:15 31.60637 39.01717 37962 ft 394 kts 282°
2026-05-04 15:16 31.63210 38.93672 37971 ft 393 kts 282°
2026-05-04 15:17 31.66088 38.84649 37972 ft 394 kts 282°
2026-05-04 15:17 31.68283 38.77330 37955 ft 386 kts 274°
2026-05-04 15:18 31.68745 38.71170 37962 ft 376 kts 264°
2026-05-04 15:19 31.67482 38.62204 37987 ft 371 kts 255°
2026-05-04 15:19 31.65752 38.53346 37965 ft 371 kts 255°
2026-05-04 15:20 31.64616 38.47462 37971 ft 370 kts 255°
2026-05-04 15:20 31.63502 38.41669 37935 ft 370 kts 255°
2026-05-04 15:21 31.62515 38.36537 37958 ft 370 kts 255°
2026-05-04 15:22 31.60811 38.27704 37978 ft 370 kts 255°
2026-05-04 15:22 31.59098 38.18857 38022 ft 371 kts 255°
2026-05-04 15:23 31.57958 38.12987 37984 ft 371 kts 255°
2026-05-04 15:23 31.56877 38.07430 37957 ft 363 kts 255°
2026-05-04 15:24 31.55793 38.01863 37936 ft 338 kts 255°
2026-05-04 15:24 31.54772 37.96643 37963 ft 319 kts 255°
2026-05-04 15:25 31.53800 37.91690 37966 ft 305 kts 255°
2026-05-04 15:25 31.53329 37.89294 37972 ft 298 kts 254°
2026-05-04 15:26 31.52415 37.84650 37976 ft 287 kts 254°
2026-05-04 15:26 31.51970 37.82392 37971 ft 282 kts 254°
2026-05-04 15:26 31.51102 37.77991 37972 ft 273 kts 254°
2026-05-04 15:27 31.50677 37.75841 37972 ft 268 kts 254°
2026-05-04 15:27 31.49846 37.71644 37975 ft 260 kts 254°
2026-05-04 15:28 31.49473 37.67429 37871 ft 262 kts 263°
2026-05-04 15:28 31.49469 37.65302 37789 ft 261 kts 264°
2026-05-04 15:28 31.49478 37.61062 37640 ft 259 kts 264°
2026-05-04 15:29 31.49481 37.58953 37507 ft 258 kts 264°
2026-05-04 15:30 31.49478 37.50616 37259 ft 254 kts 263°
2026-05-04 15:30 31.49467 37.44421 37077 ft 253 kts 264°
2026-05-04 15:31 31.49457 37.40298 36936 ft 253 kts 264°
2026-05-04 15:31 31.49452 37.38241 36884 ft 252 kts 264°
2026-05-04 15:32 31.49434 37.32104 36751 ft 250 kts 264°
2026-05-04 15:32 31.49421 37.28043 36652 ft 249 kts 264°
2026-05-04 15:33 31.49406 37.23991 36549 ft 248 kts 264°
2026-05-04 15:34 31.49381 37.17946 36479 ft 246 kts 264°
2026-05-04 15:34 31.49373 37.15946 36447 ft 245 kts 264°
2026-05-04 15:34 31.49354 37.11953 36361 ft 245 kts 264°
2026-05-04 15:35 31.49335 37.07973 36267 ft 244 kts 264°
2026-05-04 15:35 31.49325 37.05983 36226 ft 244 kts 264°
2026-05-04 15:35 31.49314 37.03995 36193 ft 244 kts 264°
2026-05-04 15:36 31.49724 37.00008 36096 ft 252 kts 276°
2026-05-04 15:36 31.50246 36.98025 36080 ft 255 kts 278°
2026-05-04 15:36 31.50824 36.96057 36038 ft 256 kts 278°
2026-05-04 15:37 31.51410 36.94092 36028 ft 255 kts 278°
2026-05-04 15:37 31.51992 36.92132 36019 ft 254 kts 278°
2026-05-04 15:37 31.52569 36.90180 36010 ft 253 kts 278°
2026-05-04 15:37 31.53142 36.88229 35985 ft 253 kts 278°
2026-05-04 15:38 31.53711 36.86281 35953 ft 252 kts 278°
2026-05-04 15:38 31.54280 36.84332 35921 ft 252 kts 278°
2026-05-04 15:38 31.54840 36.82406 35882 ft 253 kts 278°
2026-05-04 15:38 31.55408 36.80455 35845 ft 253 kts 278°
2026-05-04 15:39 31.55974 36.78505 35819 ft 253 kts 278°
2026-05-04 15:39 31.56540 36.76555 35789 ft 252 kts 278°
2026-05-04 15:39 31.57658 36.72663 35769 ft 252 kts 277°
2026-05-04 15:40 31.58215 36.70709 35726 ft 252 kts 277°
2026-05-04 15:40 31.58773 36.68756 35695 ft 253 kts 277°
2026-05-04 15:40 31.59332 36.66798 35665 ft 253 kts 277°
2026-05-04 15:40 31.59890 36.64845 35652 ft 253 kts 277°
2026-05-04 15:41 31.60447 36.62893 35641 ft 252 kts 277°
2026-05-04 15:41 31.61007 36.60945 35632 ft 252 kts 278°
2026-05-04 15:41 31.61578 36.59000 35620 ft 252 kts 278°
2026-05-04 15:41 31.62146 36.57059 35550 ft 252 kts 278°
2026-05-04 15:42 31.62717 36.55115 35521 ft 252 kts 278°
2026-05-04 15:42 31.63289 36.53166 35492 ft 253 kts 278°
2026-05-04 15:42 31.63861 36.51214 35462 ft 253 kts 278°
2026-05-04 15:42 31.64433 36.49260 35462 ft 253 kts 278°
2026-05-04 15:43 31.64998 36.47311 35464 ft 252 kts 277°
2026-05-04 15:43 31.65543 36.45362 35460 ft 251 kts 277°
2026-05-04 15:43 31.66083 36.43417 35469 ft 250 kts 277°
2026-05-04 15:43 31.66623 36.41477 35458 ft 250 kts 277°
2026-05-04 15:44 31.67177 36.39542 35451 ft 250 kts 278°
2026-05-04 15:44 31.67736 36.37605 35432 ft 251 kts 278°
2026-05-04 15:44 31.68296 36.35665 35408 ft 251 kts 278°
2026-05-04 15:44 31.68856 36.33722 35395 ft 251 kts 278°
2026-05-04 15:45 31.69416 36.31780 35383 ft 251 kts 278°
2026-05-04 15:45 31.69974 36.29840 35378 ft 251 kts 278°
2026-05-04 15:45 31.70531 36.27903 35376 ft 250 kts 278°
2026-05-04 15:45 31.71086 36.25970 35376 ft 250 kts 278°
2026-05-04 15:46 31.71642 36.24035 35384 ft 250 kts 278°
2026-05-04 15:46 31.72197 36.22101 35373 ft 250 kts 278°
2026-05-04 15:46 31.72751 36.20168 35359 ft 250 kts 278°
2026-05-04 15:46 31.73304 36.18236 35347 ft 250 kts 278°
2026-05-04 15:47 31.73846 36.16297 35337 ft 248 kts 275°
2026-05-04 15:47 31.74182 36.14342 35323 ft 242 kts 270°
2026-05-04 15:47 31.74402 36.12382 35316 ft 242 kts 269°
2026-05-04 15:47 31.74607 36.10424 35312 ft 241 kts 269°
2026-05-04 15:48 31.74807 36.08490 35308 ft 241 kts 269°
2026-05-04 15:48 31.75012 36.06533 35309 ft 241 kts 269°
2026-05-04 15:48 31.75423 36.02623 35315 ft 241 kts 269°
2026-05-04 15:49 31.75630 36.00665 35303 ft 241 kts 269°
2026-05-04 15:49 31.75837 35.98713 35298 ft 241 kts 269°
2026-05-04 15:49 31.76044 35.96756 35295 ft 241 kts 269°
2026-05-04 15:49 31.76251 35.94802 35298 ft 241 kts 269°
2026-05-04 15:50 31.76458 35.92848 35293 ft 241 kts 269°
2026-05-04 15:50 31.76665 35.90897 35294 ft 241 kts 269°
2026-05-04 15:50 31.76871 35.88946 35296 ft 240 kts 269°
2026-05-04 15:50 31.77077 35.86996 35293 ft 240 kts 269°
2026-05-04 15:51 31.77283 35.85046 35288 ft 240 kts 269°
2026-05-04 15:51 31.77488 35.83097 35291 ft 240 kts 269°
2026-05-04 15:51 31.77693 35.81147 35289 ft 240 kts 269°
2026-05-04 15:51 31.77898 35.79198 35290 ft 240 kts 269°
2026-05-04 15:52 31.78103 35.77246 35290 ft 240 kts 269°
2026-05-04 15:52 31.78308 35.75293 35363 ft 240 kts 269°
2026-05-04 15:52 31.78512 35.73346 35404 ft 239 kts 269°
2026-05-04 15:52 31.78714 35.71414 35462 ft 237 kts 269°
2026-05-04 15:53 31.78915 35.69495 35502 ft 236 kts 269°
2026-05-04 15:53 31.79115 35.67579 35515 ft 236 kts 269°
2026-05-04 15:53 31.79313 35.65666 35499 ft 236 kts 269°
2026-05-04 15:53 31.79510 35.63766 35472 ft 238 kts 269°
2026-05-04 15:54 31.79710 35.61837 35449 ft 238 kts 269°
2026-05-04 15:54 31.79989 35.59901 35435 ft 243 kts 275°
2026-05-04 15:54 31.80493 35.57985 35431 ft 247 kts 279°
2026-05-04 15:54 31.81081 35.56085 35449 ft 247 kts 279°
2026-05-04 15:55 31.81678 35.54191 35464 ft 246 kts 279°
2026-05-04 15:55 31.82041 35.52937 35469 ft 244 kts 277°
2026-05-04 15:55 31.82554 35.51034 35469 ft 243 kts 277°
2026-05-04 15:55 31.83066 35.49138 35521 ft 244 kts 278°
2026-05-04 15:56 31.83620 35.47263 35547 ft 242 kts 278°
2026-05-04 15:56 31.84179 35.45396 35575 ft 241 kts 278°
2026-05-04 15:56 31.84732 35.43538 35585 ft 240 kts 279°
2026-05-04 15:56 31.85281 35.41690 35587 ft 239 kts 278°
2026-05-04 15:57 31.85828 35.39840 35564 ft 240 kts 278°
2026-05-04 15:57 31.86377 35.37981 35527 ft 241 kts 278°
2026-05-04 15:57 31.86935 35.36118 35497 ft 242 kts 279°
2026-05-04 15:57 31.87500 35.34251 35469 ft 243 kts 279°
2026-05-04 15:58 31.88066 35.32379 35466 ft 242 kts 279°
2026-05-04 15:58 31.88630 35.30512 35469 ft 242 kts 279°
2026-05-04 15:58 31.89191 35.28653 35478 ft 241 kts 278°
2026-05-04 15:58 31.89751 35.26797 35483 ft 240 kts 278°
2026-05-04 15:59 31.90309 35.24942 35470 ft 240 kts 279°
2026-05-04 15:59 31.90866 35.23075 35374 ft 243 kts 279°
2026-05-04 15:59 31.91429 35.21172 35206 ft 249 kts 279°
2026-05-04 15:59 31.92006 35.19225 35087 ft 254 kts 279°
2026-05-04 16:00 31.92592 35.17255 35049 ft 255 kts 279°
2026-05-04 16:00 31.93177 35.15291 35101 ft 253 kts 279°
2026-05-04 16:00 31.93751 35.13354 35210 ft 249 kts 279°
2026-05-04 16:00 31.94303 35.11466 35306 ft 245 kts 279°
2026-05-04 16:01 31.94859 35.09549 35358 ft 244 kts 278°
2026-05-04 16:01 31.95407 35.07656 35331 ft 245 kts 279°
2026-05-04 16:01 31.95953 35.05771 35264 ft 248 kts 279°
2026-05-04 16:01 31.96519 35.03814 35194 ft 251 kts 279°
2026-05-04 16:02 31.97085 35.01865 35155 ft 252 kts 279°
2026-05-04 16:02 31.97645 34.99935 35178 ft 251 kts 279°
2026-05-04 16:02 31.98783 34.96063 35320 ft 248 kts 279°
2026-05-04 16:03 31.99349 34.94146 35359 ft 247 kts 279°
2026-05-04 16:03 31.99912 34.92229 35374 ft 247 kts 279°
2026-05-04 16:03 32.00476 34.90311 35349 ft 248 kts 279°
2026-05-04 16:03 32.01026 34.88382 35319 ft 247 kts 276°
2026-05-04 16:04 32.01361 34.86413 35287 ft 243 kts 270°
2026-05-04 16:04 32.01610 34.82460 35289 ft 241 kts 268°
2026-05-04 16:04 32.01708 34.80492 35312 ft 240 kts 268°
2026-05-04 16:05 32.01808 34.78530 35335 ft 240 kts 268°
2026-05-04 16:05 32.01910 34.76572 35353 ft 239 kts 268°
2026-05-04 16:05 32.02116 34.72681 35383 ft 240 kts 268°
2026-05-04 16:06 32.02222 34.70715 35355 ft 241 kts 268°
2026-05-04 16:06 32.02508 34.65416 35328 ft 243 kts 268°
2026-05-04 16:07 32.02655 34.62767 35344 ft 242 kts 269°
2026-05-04 16:07 32.03019 34.56889 35392 ft 239 kts 269°
2026-05-04 16:08 32.03139 34.54934 35410 ft 239 kts 269°
2026-05-04 16:08 32.03482 34.49064 35378 ft 240 kts 268°
2026-05-04 16:09 32.03698 34.45127 35366 ft 241 kts 269°
2026-05-04 16:09 32.03915 34.41169 35337 ft 243 kts 269°
2026-05-04 16:10 32.04133 34.37204 35364 ft 242 kts 269°
2026-05-04 16:11 32.04455 34.31284 35417 ft 241 kts 269°
2026-05-04 16:11 32.04561 34.29314 35402 ft 241 kts 269°
2026-05-04 16:12 32.05181 34.23402 35364 ft 249 kts 279°
2026-05-04 16:12 32.07501 34.17773 35352 ft 260 kts 291°
2026-05-04 16:13 32.09376 34.14136 35379 ft 259 kts 290°
2026-05-04 16:13 32.11234 34.10499 35411 ft 258 kts 290°
2026-05-04 16:14 32.13081 34.06859 35408 ft 259 kts 290°
2026-05-04 16:14 32.14927 34.03210 35407 ft 259 kts 290°
2026-05-04 16:15 32.17766 33.97792 35420 ft 262 kts 294°
2026-05-04 16:16 32.19894 33.94275 35460 ft 263 kts 295°
2026-05-04 16:16 32.23084 33.89029 35512 ft 261 kts 295°
2026-05-04 16:17 32.25196 33.85536 35510 ft 262 kts 295°
2026-05-04 16:18 32.28359 33.80290 35597 ft 260 kts 294°
2026-05-04 16:18 32.29404 33.78554 35635 ft 258 kts 294°
2026-05-04 16:19 32.32524 33.73360 35632 ft 259 kts 294°
2026-05-04 16:19 32.34613 33.69875 35597 ft 260 kts 294°
2026-05-04 16:20 32.37729 33.64676 35683 ft 257 kts 294°
2026-05-04 16:20 32.39791 33.61233 35719 ft 256 kts 294°
2026-05-04 16:21 32.42890 33.56043 35665 ft 258 kts 294°
2026-05-04 16:22 32.44964 33.52569 35661 ft 258 kts 294°
2026-05-04 16:22 32.48063 33.47376 35693 ft 257 kts 294°
2026-05-04 16:23 32.51154 33.42184 35684 ft 257 kts 294°
2026-05-04 16:24 32.55280 33.35243 35691 ft 257 kts 294°
2026-05-04 16:25 32.57339 33.31777 35701 ft 257 kts 294°
2026-05-04 16:26 32.61438 33.24863 35716 ft 257 kts 294°
2026-05-04 16:26 32.64520 33.19658 35717 ft 257 kts 294°
2026-05-04 16:27 32.66573 33.16185 35726 ft 257 kts 294°
2026-05-04 16:28 32.69644 33.10986 35781 ft 256 kts 294°
2026-05-04 16:28 32.72703 33.05799 35829 ft 256 kts 294°
2026-05-04 16:29 32.76830 32.98787 35763 ft 258 kts 295°
2026-05-04 16:30 32.79893 32.93580 35817 ft 257 kts 294°
2026-05-04 16:31 32.81936 32.90101 35820 ft 257 kts 294°
2026-05-04 16:31 32.85008 32.84860 35789 ft 258 kts 295°
2026-05-04 16:32 32.88094 32.79593 35810 ft 258 kts 295°
2026-05-04 16:33 32.90140 32.76096 35832 ft 257 kts 295°
2026-05-04 16:33 32.92184 32.72598 35836 ft 257 kts 295°
2026-05-04 16:34 32.94228 32.69097 35832 ft 258 kts 295°
2026-05-04 16:34 32.95252 32.67342 35833 ft 258 kts 295°
2026-05-04 16:35 32.98318 32.62083 35846 ft 257 kts 295°
2026-05-04 16:35 33.01378 32.56824 35825 ft 259 kts 295°
2026-05-04 16:36 33.02406 32.55055 35819 ft 260 kts 295°
2026-05-04 16:36 33.04129 32.52092 35834 ft 259 kts 295°
2026-05-04 16:37 33.06179 32.48563 35866 ft 258 kts 295°
2026-05-04 16:37 33.07201 32.46802 35874 ft 258 kts 295°
2026-05-04 16:37 33.09246 32.43275 35868 ft 259 kts 295°
2026-05-04 16:38 33.11295 32.39738 35865 ft 259 kts 295°
2026-05-04 16:39 33.14363 32.34435 35903 ft 259 kts 295°
2026-05-04 16:39 33.16409 32.30895 35904 ft 259 kts 295°
2026-05-04 16:40 33.18454 32.27351 35925 ft 260 kts 296°
2026-05-04 16:40 33.20508 32.23791 35914 ft 260 kts 296°
2026-05-04 16:41 33.22561 32.20230 35927 ft 260 kts 296°
2026-05-04 16:41 33.25631 32.14895 35960 ft 260 kts 296°
2026-05-04 16:42 33.28698 32.09558 35958 ft 260 kts 296°
2026-05-04 16:43 33.30731 32.06013 36001 ft 260 kts 296°
2026-05-04 16:43 33.32773 32.02454 36033 ft 259 kts 296°
2026-05-04 16:43 33.33792 32.00676 36042 ft 259 kts 296°
2026-05-04 16:44 33.37867 31.93557 36025 ft 260 kts 296°
2026-05-04 16:45 33.39905 31.89991 36038 ft 259 kts 296°
2026-05-04 16:46 33.42953 31.84651 36062 ft 259 kts 296°
2026-05-04 16:46 33.44987 31.81084 36063 ft 259 kts 296°
2026-05-04 16:47 33.47005 31.77544 36095 ft 258 kts 297°
2026-05-04 16:47 33.49027 31.73995 36126 ft 257 kts 297°
2026-05-04 16:48 33.52068 31.68652 36118 ft 258 kts 297°
2026-05-04 16:48 33.53079 31.66872 36113 ft 258 kts 297°
2026-05-04 16:49 33.55100 31.63314 36117 ft 258 kts 297°
2026-05-04 16:49 33.57120 31.59756 36140 ft 258 kts 297°
2026-05-04 16:50 33.59136 31.56198 36144 ft 258 kts 297°
2026-05-04 16:50 33.61152 31.52639 36142 ft 258 kts 297°
2026-05-04 16:51 33.63153 31.49101 36214 ft 258 kts 297°
2026-05-04 16:51 33.64162 31.47316 36176 ft 259 kts 297°
2026-05-04 16:51 33.66197 31.43712 36114 ft 262 kts 297°
2026-05-04 16:52 33.68238 31.40097 36141 ft 261 kts 297°
2026-05-04 16:52 33.69253 31.38298 36169 ft 260 kts 297°
2026-05-04 16:53 33.71279 31.34705 36202 ft 259 kts 297°
2026-05-04 16:53 33.74314 31.29311 36168 ft 261 kts 297°
2026-05-04 16:54 33.75330 31.27504 36165 ft 261 kts 297°
2026-05-04 16:55 33.79381 31.20292 36210 ft 260 kts 298°
2026-05-04 16:55 33.81402 31.16687 36215 ft 260 kts 297°
2026-05-04 16:56 33.83424 31.13077 36213 ft 260 kts 297°
2026-05-04 16:56 33.86459 31.07652 36228 ft 260 kts 297°
2026-05-04 16:57 33.87469 31.05845 36232 ft 260 kts 297°
2026-05-04 16:57 33.89488 31.02230 36243 ft 260 kts 297°
2026-05-04 16:58 33.92502 30.96827 36244 ft 260 kts 297°
2026-05-04 16:58 33.93511 30.95015 36224 ft 261 kts 298°
2026-05-04 16:59 33.95542 30.91367 36170 ft 263 kts 298°
2026-05-04 17:00 33.99620 30.84030 36218 ft 262 kts 298°
2026-05-04 17:00 34.02657 30.78552 36238 ft 262 kts 298°
2026-05-04 17:01 34.04686 30.74888 36226 ft 263 kts 298°
2026-05-04 17:01 34.06719 30.71211 36230 ft 263 kts 298°
2026-05-04 17:02 34.08751 30.67535 36256 ft 264 kts 299°
2026-05-04 17:02 34.10799 30.63823 36195 ft 267 kts 299°
2026-05-04 17:03 34.11830 30.61954 36187 ft 267 kts 299°
2026-05-04 17:03 34.12859 30.60089 36214 ft 267 kts 299°
2026-05-04 17:03 34.14907 30.56372 36264 ft 265 kts 299°
2026-05-04 17:04 34.16947 30.52665 36284 ft 265 kts 299°
2026-05-04 17:04 34.18991 30.48947 36275 ft 266 kts 299°
2026-05-04 17:05 34.21039 30.45217 36276 ft 267 kts 299°
2026-05-04 17:05 34.23087 30.41484 36309 ft 266 kts 298°
2026-05-04 17:06 34.25131 30.37755 36331 ft 266 kts 299°
2026-05-04 17:06 34.26152 30.35891 36325 ft 266 kts 299°
2026-05-04 17:07 34.28196 30.32154 36324 ft 267 kts 299°
2026-05-04 17:07 34.28876 30.30910 36326 ft 267 kts 299°
2026-05-04 17:07 34.30231 30.28431 36337 ft 267 kts 299°
2026-05-04 17:07 34.31230 30.26603 36348 ft 267 kts 299°
2026-05-04 17:08 34.32251 30.24732 36359 ft 267 kts 299°
2026-05-04 17:08 34.34334 30.20908 36528 ft 278 kts 299°
2026-05-04 17:08 34.35405 30.18943 36777 ft 281 kts 299°
2026-05-04 17:09 34.36483 30.16964 36983 ft 283 kts 299°
2026-05-04 17:09 34.37569 30.14970 37212 ft 284 kts 299°
2026-05-04 17:09 34.38659 30.12967 37438 ft 286 kts 299°
2026-05-04 17:10 34.40860 30.08920 37806 ft 291 kts 300°
2026-05-04 17:10 34.44296 30.02588 37958 ft 311 kts 300°
2026-05-04 17:11 34.46997 29.98320 37972 ft 330 kts 309°
2026-05-04 17:11 34.50308 29.94256 37976 ft 347 kts 310°
2026-05-04 17:12 34.52025 29.92159 37975 ft 354 kts 310°
2026-05-04 17:12 34.55544 29.87844 37976 ft 369 kts 310°
2026-05-04 17:13 34.61102 29.80989 37971 ft 390 kts 310°
2026-05-04 17:14 34.66930 29.73775 37965 ft 407 kts 310°
2026-05-04 17:14 34.68930 29.71295 37964 ft 413 kts 310°
2026-05-04 17:15 34.75043 29.63703 37957 ft 422 kts 310°
2026-05-04 17:16 34.83261 29.53473 37963 ft 423 kts 311°
2026-05-04 17:17 34.90811 29.44040 37964 ft 426 kts 311°
2026-05-04 17:18 34.99076 29.33685 37963 ft 426 kts 311°
2026-05-04 17:19 35.07291 29.23288 37965 ft 425 kts 311°
2026-05-04 17:20 35.15473 29.12881 37968 ft 424 kts 311°
2026-05-04 17:20 35.21600 29.05070 37979 ft 425 kts 311°
2026-05-04 17:21 35.29822 28.94562 37963 ft 428 kts 311°
2026-05-04 17:22 35.33908 28.89327 37973 ft 428 kts 311°
2026-05-04 17:23 35.42135 28.78764 37974 ft 428 kts 311°
2026-05-04 17:24 35.48294 28.70832 37982 ft 428 kts 311°
2026-05-04 17:25 35.56518 28.60212 37992 ft 430 kts 312°
2026-05-04 17:26 35.64764 28.49531 37990 ft 431 kts 312°
2026-05-04 17:27 35.75074 28.36127 37984 ft 431 kts 312°
2026-05-04 17:28 35.83304 28.25388 38003 ft 430 kts 312°
2026-05-04 17:29 35.95609 28.09268 38007 ft 431 kts 312°
2026-05-04 17:31 36.05869 27.95766 38018 ft 431 kts 312°
2026-05-04 17:32 36.11056 27.88918 38014 ft 431 kts 312°